Temperature
2 2 2 2 2 2 2 2 2 1 2 2 3 3 3 3 3 3 3 3 3 4 4 4 4 4 4 4 5 5 5 5 5 5 5 5 5 5
2 2 2 2 2 2 2 2 2 2 1 2 2 2 2 2 3 3 3 3 3 3 3 4 4 4 4 4 4 4 4 4 4 4 4 4 4 4
2 2 2 2 1 1 1 1 1 1 1 1 2 2 2 2 2 2 3 3 3 3 3 3 3 3 3 3 3 4 4 4 4 4 4 4 4 4
1 1 1 1 1 1 1 1 1 1 1 1 1 1 1 2 2 2 2 2 2 3 3 3 3 3 3 3 3 3 3 3 3 3 3 3 3 3
1 1 1 1 1 1 1 1 1 1 1 1 1 1 1 1 1 2 2 2 2 2 2 2 2 2 3 3 3 3 3 3 3 3 3 3 3 3
1 1 0 0 0 0 0 0 0 0 0 0 0 0 1 1 1 1 1 1 2 2 2 2 2 2 2 2 2 2 2 2 3 2 2 3 3 3
0 0 0 0 0 -0 -0 0 0 0 0 -0 -0 -0 -0 0 0 0 0 1 1 1 1 1 1 2 2 2 2 2 2 2 2 2 2 2 2 2
0 0 -0 -0 -0 -0 -0 -0 -0 -0 -0 -0 -1 -1 -1 -0 -0 -0 -0 -0 0 0 1 1 1 1 1 1 1 2 2 2 2 2 2 2 2 2
-0 -0 -0 -0 -0 -1 -0 -0 -0 -0 -1 -1 -1 -1 -1 -1 -1 -1 -1 -0 -0 0 -0 0 0 1 1 1 1 1 1 1 1 1 1 1 1 1
-1 -1 -1 -1 -1 -1 -1 -1 -1 -1 -1 -1 -1 -1 -1 -1 -1 -1 -1 -1 -0 -0 -0 -1 -0 0 0 0 0 1 1 1 1 1 1 1 1 1
-1 -1 -1 -1 -1 -1 -1 -1 -1 -1 -1 -1 -2 -2 -1 -1 -1 -1 -1 -1 -1 -1 -1 -1 -1 -1 -0 0 0 0 0 0 0 0 0 0 0 0
-2 -2 -2 -2 -2 -2 -2 -2 -2 -2 -2 -2 -1 -1 -1 -1 -1 -1 -1 -1 -1 -2 -1 -2 -2 -2 -2 -1 -1 -0 -0 -0 -0 -0 -0 -0 -0 -0
-2 -2 -2 -2 -2 -2 -2 -2 -2 -2 -2 -2 -2 -2 -1 -1 -1 -1 -2 -2 -2 -2 -2 -2 -2 -2 -2 -2 -1 -1 -1 -1 -1 -0 -0 -0 -1 -1
-3 -2 -2 -2 -3 -3 -3 -3 -3 -3 -3 -3 -2 -2 -2 -2 -2 -2 -2 -2 -2 -2 -2 -2 -2 -2 -2 -3 -2 -1 -1 -1 -1 -1 -1 -1 -1 -1
-3 -3 -3 -3 -3 -3 -3 -3 -3 -3 -3 -3 -3 -3 -3 -2 -2 -2 -2 -2 -2 -2 -2 -2 -2 -2 -2 -2 -2 -2 -2 -2 -1 -1 -1 -1 -1 -1
-3 -3 -3 -3 -3 -3 -3 -3 -3 -3 -3 -3 -3 -3 -3 -3 -3 -3 -2 -2 -2 -2 -2 -2 -2 -2 -2 -2 -2 -2 -2 -2 -2 -2 -2 -2 -1 -1
-4 -4 -3 -4 -4 -4 -4 -4 -4 -4 -4 -3 -3 -3 -3 -3 -3 -3 -3 -3 -3 -3 -2 -2 -3 -3 -3 -3 -2 -2 -2 -3 -3 -2 -2 -2 -2 -2
-4 -4 -4 -4 -4 -4 -4 -4 -4 -4 -4 -4 -4 -4 -4 -4 -3 -3 -3 -3 -3 -3 -3 -3 -3 -3 -3 -3 -3 -3 -3 -3 -3 -3 -3 -3 -2 -2
-4 -4 -4 -4 -4 -4 -4 -4 -4 -4 -4 -4 -4 -4 -4 -4 -4 -4 -4 -4 -4 -4 -3 -3 -4 -4 -4 -4 -3 -3 -3 -3 -3 -3 -3 -3 -3 -2
-4 -5 -5 -5 -5 -5 -5 -5 -5 -5 -4 -4 -4 -4 -4 -4 -4 -4 -4 -4 -4 -4 -4 -4 -4 -4 -4 -4 -4 -3 -3 -3 -3 -3 -3 -3 -3 -3
-5 -5 -5 -5 -5 -5 -5 -5 -5 -5 -5 -5 -5 -4 -4 -4 -4 -4 -4 -4 -4 -4 -4 -4 -4 -4 -4 -4 -4 -4 -3 -3 -3 -3 -3 -3 -3 -3
-5 -5 -5 -5 -5 -5 -5 -5 -5 -5 -5 -5 -5 -5 -5 -5 -5 -5 -5 -5 -4 -4 -4 -4 -4 -4 -4 -4 -4 -4 -4 -3 -3 -3 -3 -3 -3 -3
-5 -5 -5 -5 -5 -5 -5 -5 -5 -5 -5 -5 -5 -5 -5 -5 -5 -5 -5 -5 -5 -5 -5 -5 -4 -4 -4 -4 -4 -4 -4 -4 -4 -3 -3 -3 -3 -3
Wind_Speed
4 4 3 3 3 3 2 3 3 3 4 3 2 2 3 4 5 4 4 6 8 8 8 8 8 7 6 6 6 7 7 7 7 7 7 8 8 8
3 4 3 3 3 3 3 3 3 4 5 3 3 3 3 5 6 4 4 7 7 8 8 8 7 6 6 6 6 6 6 6 7 7 8 8 8 9
3 3 4 4 4 3 3 3 3 3 5 4 3 3 3 4 4 4 4 4 5 7 8 7 7 6 5 5 5 6 6 7 7 7 8 9 9 9
4 4 5 4 5 4 3 4 4 4 4 5 4 3 3 3 3 4 3 4 4 6 7 7 6 5 5 5 5 5 6 7 7 7 8 9 9 9
4 5 5 5 5 4 4 4 4 4 3 4 4 3 3 2 3 3 3 3 3 4 6 6 6 5 5 5 5 6 6 6 7 7 8 9 9 8
4 4 5 6 6 6 5 5 4 3 3 3 3 3 2 3 2 3 3 2 3 3 5 5 5 5 5 6 6 6 6 6 7 8 7 7 7 6
3 4 4 5 5 4 4 4 4 3 3 3 3 3 2 2 2 2 3 3 3 2 2 3 3 3 4 6 6 6 6 7 7 7 7 6 6 6
4 4 4 4 4 5 5 4 3 4 3 3 3 3 3 2 2 3 2 2 3 1 1 3 2 3 3 3 6 8 7 6 6 6 7 6 5 6
4 3 3 2 3 3 3 3 3 5 4 3 4 4 4 3 3 3 2 2 3 2 2 3 2 3 3 5 7 7 7 6 6 7 6 5 5 5
3 3 3 3 3 2 1 1 2 3 4 3 4 4 4 3 3 4 3 2 2 2 1 2 2 2 4 4 6 6 6 7 7 6 5 5 5 5
3 3 3 3 3 2 1 1 2 2 3 4 4 4 4 5 3 1 1 1 2 2 1 0 1 2 3 3 4 6 6 6 6 7 6 5 5 5
3 3 3 3 3 2 2 2 3 2 2 2 2 3 3 3 4 2 3 2 1 2 1 0 1 1 2 2 3 4 4 6 7 7 6 5 4 2
3 2 3 3 3 3 2 2 3 2 1 1 1 1 1 2 2 2 2 3 3 2 2 1 1 1 1 2 3 4 4 4 4 5 5 4 4 2
3 2 2 3 2 2 2 2 2 1 1 1 1 1 2 2 2 2 2 1 2 3 4 3 2 2 2 3 4 3 3 4 3 3 3 3 3 3
2 3 2 2 2 2 2 2 1 1 1 1 1 2 2 2 2 2 2 1 2 2 2 3 3 3 3 3 3 4 3 3 3 2 2 2 2 2
2 2 2 1 0 1 1 2 1 1 1 1 1 1 1 1 1 1 2 1 2 3 2 2 2 3 3 4 3 4 3 2 2 2 2 2 2 2
1 1 1 1 0 0 1 1 1 1 1 1 1 1 1 1 2 1 1 2 2 3 3 3 2 1 2 3 3 3 2 2 2 2 2 2 2 2
2 1 1 1 1 1 1 1 1 2 2 2 1 1 2 2 2 2 2 2 2 2 3 2 2 3 2 2 2 3 2 2 2 2 1 1 2 2
2 1 2 2 2 2 2 2 2 2 2 2 2 2 2 2 2 2 2 2 2 2 2 2 2 1 2 3 3 2 2 2 2 2 1 1 2 3
1 2 2 2 2 2 2 2 2 2 2 2 2 2 2 2 1 2 2 2 2 2 2 2 2 2 2 3 2 2 3 2 1 1 2 1 1 2
2 2 2 2 2 2 2 2 2 2 2 2 2 2 2 2 2 2 2 3 2 2 2 3 4 4 2 0 0 2 2 2 1 1 2 1 1 1
2 2 2 2 2 2 2 2 2 2 2 2 2 2 2 2 2 3 2 2 2 2 3 3 2 2 1 0 1 1 2 3 4 3 2 2 1 1
3 3 2 3 3 2 2 3 3 3 3 3 3 3 2 2 2 2 2 2 2 2 2 2 2 2 1 0 0 1 2 3 3 3 3 4 2 1
Wind_Direction
227 225 228 242 237 242 235 215 220 264 277 257 257 282 310 313 310 311 308 307 310 313 314 310 312 312 311 312 309 307 310 311 310 309 301 299 299 297
229 228 236 244 234 234 233 237 228 234 258 252 268 291 305 311 311 309 301 311 308 307 308 311 312 307 307 310 311 311 312 312 314 311 310 307 304 302
240 236 244 247 240 237 237 239 242 239 254 275 272 282 288 291 306 300 296 293 291 302 307 310 310 313 314 313 310 311 312 315 317 314 308 307 304 300
235 238 246 247 237 236 235 240 247 245 240 262 275 275 276 277 290 291 304 299 288 297 305 309 315 323 322 319 315 316 318 319 317 312 308 306 304 301
232 233 240 243 238 238 236 236 241 245 237 244 267 270 274 276 296 298 298 295 297 303 313 316 321 321 321 324 323 320 318 323 321 315 312 311 309 303
240 239 238 239 233 230 232 231 232 235 237 243 259 270 273 270 277 288 305 311 303 312 314 313 316 319 322 327 327 325 321 320 320 319 312 316 321 316
256 250 249 250 240 237 238 224 217 223 231 242 254 269 271 266 274 279 284 303 303 291 306 304 309 311 311 317 325 323 319 317 314 318 321 321 322 321
258 262 258 247 249 253 256 250 229 222 225 237 247 250 259 262 273 279 282 300 300 301 317 305 301 297 299 301 309 312 315 316 318 319 321 321 320 320
248 256 264 258 253 241 261 279 266 257 247 233 231 245 251 249 251 269 264 270 270 280 316 303 309 300 300 304 309 311 314 317 321 322 319 321 324 320
250 244 245 252 246 227 212 264 278 268 264 251 238 249 254 248 239 250 251 279 289 287 270 276 299 300 310 309 309 308 312 317 321 324 325 326 323 315
265 248 231 229 254 256 213 242 280 282 287 279 278 281 288 286 278 274 264 263 298 303 293 217 282 313 312 304 310 315 315 320 322 323 320 319 319 317
261 244 234 236 247 254 218 216 248 273 285 300 295 294 283 276 276 239 222 229 258 276 261 237 249 330 322 303 313 329 328 318 322 325 322 315 316 329
242 237 235 242 247 247 250 238 253 271 256 262 278 290 295 285 282 262 229 217 229 252 233 226 243 260 250 293 310 312 313 314 325 328 330 330 326 328
240 233 226 232 240 246 255 279 300 308 251 265 276 284 290 286 287 290 278 257 248 245 238 234 235 241 262 285 290 303 312 316 318 318 329 334 343 344
246 231 222 223 231 244 273 306 315 307 274 269 278 283 281 275 285 303 329 346 342 312 286 253 243 250 257 262 271 281 297 311 319 317 326 329 327 332
246 219 202 189 110 11 323 313 315 290 269 269 286 287 295 298 305 308 304 320 336 327 333 305 265 252 265 272 264 274 284 286 314 322 323 323 338 348
177 132 115 119 166 254 281 290 298 302 303 297 285 294 298 307 311 310 305 314 301 300 320 336 349 331 278 263 262 267 274 283 286 298 314 323 314 313
153 158 189 200 215 234 247 264 266 275 282 287 286 287 289 292 301 309 305 304 296 298 304 316 333 344 349 339 274 252 271 286 300 309 303 316 319 318
165 184 209 218 221 231 242 246 254 262 263 271 282 282 285 286 286 297 305 304 297 294 299 300 300 299 304 310 318 282 254 290 315 328 322 299 294 306
185 200 217 223 224 229 238 250 264 277 276 277 277 281 277 282 285 286 286 283 288 297 306 311 301 281 259 264 276 303 306 266 263 291 313 319 310 316
210 211 217 215 221 226 231 236 244 261 272 267 269 272 268 267 275 277 281 289 288 287 289 298 297 299 299 329 328 323 340 351 277 256 275 301 331 338
213 215 220 218 214 219 227 229 236 247 256 260 263 270 268 264 271 280 280 281 286 285 295 307 322 327 326 233 258 323 345 359 15 17 335 257 238 213
214 215 218 218 213 217 226 226 229 235 241 251 257 262 262 263 269 275 278 281 290 296 302 317 335 342 332 309 339 352 4 1 7 16 5 18 30 356
Height
1452 1452 1452 1453 1453 1453 1453 1453 1453 1451 1449 1448 1448 1448 1448 1447 1446 1445 1444 1444 1443 1442 1441 1440 1439 1439 1438 1438 1437 1436 1436 1435 1435 1434 1434 1434 1433 1433
1448 1448 1448 1449 1449 1449 1449 1449 1449 1448 1446 1444 1444 1444 1444 1443 1443 1442 1441 1440 1439 1438 1437 1437 1436 1435 1435 1434 1433 1433 1432 1431 1431 1430 1430 1429 1429 1428
1444 1444 1444 1445 1445 1445 1445 1445 1445 1445 1442 1441 1441 1441 1440 1440 1439 1438 1437 1436 1435 1435 1434 1433 1433 1432 1431 1431 1430 1429 1428 1427 1427 1426 1426 1425 1425 1424
1440 1440 1440 1441 1441 1441 1441 1441 1441 1440 1439 1437 1437 1437 1437 1436 1435 1434 1433 1433 1432 1431 1431 1430 1429 1428 1428 1427 1426 1426 1425 1424 1423 1422 1422 1422 1421 1420
1436 1436 1436 1436 1436 1437 1437 1437 1437 1437 1436 1434 1433 1433 1433 1432 1431 1431 1430 1429 1429 1428 1428 1427 1426 1425 1425 1424 1423 1422 1421 1420 1420 1419 1418 1418 1417 1416
1432 1432 1432 1432 1432 1433 1433 1433 1433 1432 1431 1431 1429 1429 1429 1429 1428 1427 1426 1426 1426 1425 1425 1424 1423 1422 1422 1421 1420 1419 1418 1417 1416 1415 1415 1414 1413 1412
1429 1429 1429 1429 1429 1429 1429 1429 1429 1428 1427 1427 1426 1425 1425 1425 1425 1424 1424 1422 1422 1422 1421 1421 1420 1419 1418 1417 1416 1415 1414 1413 1413 1412 1411 1410 1410 1409
1425 1425 1425 1425 1425 1426 1425 1425 1425 1424 1423 1423 1422 1422 1422 1422 1422 1422 1421 1419 1418 1419 1418 1417 1417 1415 1415 1414 1413 1412 1411 1410 1409 1408 1407 1406 1406 1405
1422 1421 1421 1421 1421 1421 1421 1421 1421 1421 1421 1421 1419 1419 1419 1419 1419 1419 1418 1417 1416 1416 1415 1412 1413 1412 1412 1411 1410 1409 1407 1406 1405 1404 1403 1402 1402 1401
1418 1418 1418 1418 1418 1418 1417 1417 1417 1417 1417 1417 1417 1416 1417 1417 1417 1417 1416 1414 1413 1413 1413 1410 1409 1408 1407 1407 1406 1405 1404 1403 1401 1400 1399 1398 1398 1398
1415 1415 1415 1415 1415 1415 1414 1413 1413 1413 1414 1414 1414 1413 1414 1414 1414 1413 1412 1411 1409 1409 1410 1408 1406 1405 1403 1402 1402 1401 1400 1399 1398 1397 1395 1394 1394 1394
1412 1412 1412 1412 1412 1412 1411 1410 1410 1409 1410 1410 1410 1410 1411 1411 1411 1411 1410 1408 1407 1406 1406 1406 1404 1403 1400 1399 1398 1398 1397 1396 1395 1393 1392 1391 1390 1390
1409 1408 1408 1409 1409 1409 1409 1408 1407 1407 1407 1407 1407 1407 1407 1407 1407 1407 1407 1406 1405 1404 1404 1404 1402 1401 1399 1396 1394 1394 1393 1392 1391 1389 1388 1388 1387 1387
1406 1405 1406 1406 1407 1407 1406 1406 1406 1405 1404 1404 1404 1403 1403 1404 1404 1404 1403 1403 1402 1402 1401 1401 1399 1398 1396 1393 1392 1390 1390 1389 1387 1386 1385 1385 1385 1385
1403 1403 1404 1404 1404 1404 1404 1404 1403 1403 1402 1401 1401 1401 1401 1401 1401 1400 1400 1399 1399 1398 1398 1397 1396 1395 1394 1391 1389 1387 1386 1385 1385 1384 1383 1382 1382 1381
1401 1401 1401 1401 1402 1402 1402 1401 1401 1401 1400 1399 1399 1399 1399 1398 1398 1397 1397 1396 1395 1394 1394 1394 1393 1392 1390 1388 1387 1385 1384 1383 1382 1381 1381 1380 1379 1379
1398 1398 1398 1398 1399 1399 1399 1399 1399 1399 1398 1397 1397 1397 1396 1396 1395 1395 1394 1393 1392 1390 1390 1390 1389 1388 1387 1386 1384 1382 1381 1381 1380 1379 1378 1376 1376 1376
1396 1395 1395 1396 1396 1396 1396 1396 1396 1396 1396 1395 1395 1395 1394 1394 1393 1393 1392 1391 1389 1388 1387 1386 1385 1384 1384 1383 1383 1380 1379 1378 1378 1377 1376 1375 1373 1374
1393 1393 1393 1394 1394 1394 1394 1394 1394 1395 1394 1394 1393 1393 1392 1392 1391 1390 1389 1389 1387 1386 1385 1384 1384 1383 1381 1379 1379 1380 1378 1377 1376 1375 1374 1374 1372 1372
1390 1391 1391 1392 1392 1392 1392 1392 1392 1393 1392 1392 1391 1391 1390 1389 1389 1388 1387 1387 1385 1384 1382 1382 1382 1381 1379 1378 1377 1377 1377 1376 1375 1374 1373 1372 1372 1371
1388 1388 1389 1390 1390 1390 1391 1391 1390 1390 1390 1390 1389 1389 1388 1388 1387 1386 1385 1385 1384 1382 1380 1380 1380 1380 1378 1377 1376 1375 1375 1375 1374 1373 1372 1371 1370 1370
1386 1386 1387 1387 1388 1388 1388 1388 1388 1388 1388 1388 1387 1387 1387 1386 1385 1384 1384 1383 1381 1380 1379 1379 1378 1378 1377 1375 1374 1373 1373 1373 1373 1373 1372 1372 1370 1369
1383 1384 1384 1384 1385 1385 1386 1386 1386 1386 1385 1385 1385 1385 1385 1384 1384 1383 1382 1381 1380 1379 1378 1377 1376 1376 1375 1374 1373 1373 1372 1372 1371 1371 1371 1371 1371 1370